Date String (YYYY-MM-DD hh:mm:ss) UTC,Instrument flags,Ambient pressure (hPa),Sample flow (lpm),Bypass flow (lpm),Sample temperature (°C),Ambient temperature (°C),ASC tube jacket temperature (°C),LED temperature (°C),Box temperature (°C),Sample RH (%),Span deviation,Mass concentration (μg/m³),Mass concentration (μg/m³),Mass concentration (μg/m³)
DateTimeUTC,F1_M11,P_M11,Q1_M11,Q2_M11,T1_M11,T2_M11,T3_M11,T4_M11,T5_M11,U1_M11,ZSPAN_M11,X0_M11,X2_M11,X1_M11
2022-03-08 18:00:00,,0823.3,4.99,0.00,22.8,22.1,00.0,31.8,24.6,06.7,0000.0,0008.43,0004.16,0003.94
2022-03-08 18:01:00,,0823.3,5.01,0.00,22.8,22.1,00.0,31.8,24.6,06.7,0000.0,0008.45,0004.20,0003.95
2022-03-08 18:02:00,,0823.4,5.00,0.00,22.8,22.1,00.0,31.8,24.5,06.6,0000.0,0007.58,0004.23,0003.95
2022-03-08 18:03:00,,0823.4,5.00,0.00,22.8,22.0,00.0,31.8,24.5,06.4,0000.0,0007.60,0004.24,0003.96
2022-03-08 18:04:00,,0823.3,5.02,0.00,22.7,22.0,00.0,31.8,24.5,06.6,0000.4,0007.61,0004.24,0003.96
2022-03-08 18:05:00,,0823.3,4.99,0.00,22.7,22.0,00.0,31.8,24.5,07.0,0000.0,0007.70,0004.27,0003.98
2022-03-08 18:06:00,,0823.3,5.00,0.00,22.7,22.0,00.0,31.8,24.5,06.8,0000.0,0007.58,0004.27,0003.99
2022-03-08 18:07:00,,0823.2,5.00,0.00,22.7,22.0,00.0,31.8,24.5,06.8,0000.0,0006.82,0004.23,0003.98
2022-03-08 18:08:00,,0823.2,5.01,0.00,22.7,22.0,00.0,31.7,24.5,06.7,0000.0,0006.67,0004.22,0003.97
2022-03-08 18:09:00,,0823.2,5.00,0.00,22.8,22.0,00.0,31.7,24.5,06.8,0000.0,0006.72,0004.24,0003.96
2022-03-08 18:10:00,,0823.2,4.99,0.00,22.8,22.1,00.0,31.7,24.6,07.3,0000.0,0006.70,0004.24,0003.96
2022-03-08 18:11:00,,0823.2,4.99,0.00,22.8,22.1,00.0,31.7,24.6,06.6,0000.0,0006.73,0004.23,0003.95
2022-03-08 18:12:00,,0823.2,5.00,0.00,22.8,22.1,00.0,31.7,24.6,06.8,0000.0,0007.33,0004.21,0003.94
2022-03-08 18:13:00,,0823.2,5.01,0.00,22.8,22.1,00.0,31.7,24.6,06.6,0000.0,0008.01,0004.22,0003.93
2022-03-08 18:14:00,,0823.2,5.00,0.00,22.8,22.1,00.0,31.8,24.6,06.7,0000.0,0008.32,0004.23,0003.93
2022-03-08 18:15:00,,0823.1,5.00,0.00,22.8,22.1,00.0,31.8,24.6,06.7,0000.0,0008.30,0004.22,0003.93
2022-03-08 18:16:00,,0823.1,5.00,0.00,22.7,22.0,00.0,31.8,24.5,06.5,0000.0,0008.23,0004.23,0003.92
2022-03-08 18:17:00,,0823.1,5.01,0.00,22.7,22.0,00.0,31.7,24.5,06.6,0000.0,0008.20,0004.22,0003.90
2022-03-08 18:18:00,,0823.1,5.00,0.00,22.7,22.0,00.0,31.7,24.5,06.4,0000.0,0008.26,0004.22,0003.90
2022-03-08 18:19:00,,0823.1,4.99,0.00,22.7,22.0,00.0,31.7,24.5,06.4,0000.0,0008.31,0004.23,0003.89
2022-03-08 18:20:00,,0823.1,5.01,0.00,22.7,22.0,00.0,31.7,24.5,06.2,0000.0,0008.21,0004.18,0003.87
2022-03-08 18:21:00,,0822.9,5.02,0.00,22.7,22.0,00.0,31.7,24.5,06.2,0000.0,0008.28,0004.18,0003.86
2022-03-08 18:22:00,,0823.0,5.00,0.00,22.7,22.0,00.0,31.7,24.5,06.5,0000.0,0008.40,0004.21,0003.86
2022-03-08 18:23:00,,0822.9,5.00,0.00,22.7,22.0,00.0,31.7,24.6,06.5,0000.0,0007.88,0004.19,0003.84
2022-03-08 18:24:00,,0823.0,5.00,0.00,22.8,22.1,00.0,31.7,24.6,07.0,0000.0,0006.95,0004.17,0003.84
2022-03-08 18:25:00,,0823.0,5.00,0.00,22.8,22.1,00.0,31.7,24.6,06.9,0000.0,0006.45,0004.14,0003.85
2022-03-08 18:26:00,,0823.0,5.00,0.00,22.8,22.1,00.0,31.7,24.6,06.7,0000.0,0006.53,0004.17,0003.86
2022-03-08 18:27:00,,0822.9,5.00,0.00,22.7,22.1,00.0,31.7,24.5,06.5,0000.0,0006.40,0004.16,0003.88
2022-03-08 18:28:00,,0822.9,5.02,0.00,22.7,22.1,00.0,31.7,24.5,06.6,0000.0,0006.34,0004.16,0003.88
2022-03-08 18:29:00,,0822.9,5.00,0.00,22.7,22.1,00.0,31.7,24.5,06.4,0000.0,0006.78,0004.17,0003.87
2022-03-08 18:30:00,,0822.9,5.00,0.00,22.7,22.0,00.0,31.7,24.4,06.4,0000.0,0007.27,0004.18,0003.87
2022-03-08 18:31:00,,0823.0,4.99,0.00,22.7,22.0,00.0,31.7,24.4,06.3,0000.0,0007.41,0004.22,0003.89
2022-03-08 18:32:00,,0822.9,5.01,0.00,22.7,22.0,00.0,31.7,24.4,06.5,0000.0,0007.29,0004.20,0003.89
2022-03-08 18:33:00,,0822.8,5.00,0.00,22.7,22.0,00.0,31.7,24.4,06.4,0000.0,0006.99,0004.15,0003.89
2022-03-08 18:34:00,,0822.9,4.99,0.00,22.6,22.0,00.0,31.7,24.4,07.0,0000.0,0006.93,0004.14,0003.88
2022-03-08 18:35:00,,0822.9,4.99,0.00,22.6,22.0,00.0,31.7,24.4,06.6,0000.0,0006.88,0004.13,0003.87
2022-03-08 18:36:00,,0822.8,5.00,0.00,22.6,21.9,00.0,31.7,24.3,06.5,0000.0,0006.94,0004.13,0003.86
2022-03-08 18:37:00,,0822.9,5.01,0.00,22.6,21.9,00.0,31.7,24.3,06.2,0000.0,0006.81,0004.08,0003.83
2022-03-08 18:38:00,,0822.8,5.00,0.00,22.6,21.9,00.0,31.7,24.3,05.8,0000.0,0006.72,0004.04,0003.79
2022-03-08 18:39:00,,0822.7,4.99,0.00,22.6,21.9,00.0,31.6,24.3,06.3,0000.0,0006.60,0004.01,0003.78
2022-03-08 18:40:00,,0822.7,5.00,0.00,22.6,21.9,00.0,31.6,24.4,06.1,0000.0,0006.22,0003.97,0003.76
2022-03-08 18:41:00,,0822.8,5.00,0.00,22.6,21.9,00.0,31.6,24.4,05.8,0000.0,0005.41,0003.91,0003.73
2022-03-08 18:42:00,,0822.8,5.00,0.00,22.6,22.0,00.0,31.6,24.5,05.9,0000.0,0005.22,0003.86,0003.70
2022-03-08 18:43:00,,0822.8,5.01,0.00,22.7,22.0,00.0,31.6,24.5,06.2,0000.0,0005.13,0003.84,0003.68
2022-03-08 18:44:00,,0822.7,4.99,0.00,22.7,22.1,00.0,31.6,24.5,06.4,0000.0,0005.08,0003.82,0003.65
2022-03-08 18:45:00,,0822.7,4.99,0.00,22.7,22.1,00.0,31.7,24.5,06.1,0000.0,0005.14,0003.83,0003.65
2022-03-08 18:46:00,,0822.8,4.99,0.00,22.7,22.1,00.0,31.7,24.5,06.1,0000.0,0005.12,0003.81,0003.64
2022-03-08 18:47:00,,0822.7,5.01,0.00,22.7,22.0,00.0,31.7,24.5,05.9,0000.0,0005.19,0003.78,0003.61
2022-03-08 18:48:00,,0822.7,5.01,0.00,22.7,22.0,00.0,31.7,24.5,06.3,0000.0,0005.18,0003.77,0003.60
2022-03-08 18:49:00,,0822.6,5.00,0.00,22.7,22.0,00.0,31.7,24.5,06.2,0000.0,0005.27,0003.78,0003.60
2022-03-08 18:50:00,,0822.6,5.00,0.00,22.7,22.0,00.0,31.6,24.4,06.3,0000.0,0005.34,0003.78,0003.57
2022-03-08 18:51:00,,0822.6,4.99,0.00,22.6,22.0,00.0,31.6,24.4,05.7,0000.0,0005.41,0003.79,0003.56
2022-03-08 18:52:00,,0822.6,5.01,0.00,22.6,22.0,00.0,31.6,24.4,06.3,0000.0,0005.55,0003.81,0003.57
2022-03-08 18:53:00,,0822.6,5.00,0.00,22.6,22.0,00.0,31.6,24.4,06.4,0000.0,0005.59,0003.82,0003.57
2022-03-08 18:54:00,,0822.6,5.00,0.00,22.6,22.0,00.0,31.6,24.4,05.9,0000.0,0005.63,0003.83,0003.58
2022-03-08 18:55:00,,0822.5,4.99,0.00,22.6,22.0,00.0,31.6,24.4,05.7,0000.0,0005.65,0003.84,0003.59
2022-03-08 18:56:00,,0822.5,5.01,0.00,22.6,21.9,00.0,31.6,24.3,05.8,0000.0,0005.62,0003.84,0003.59
2022-03-08 18:57:00,,0822.5,5.00,0.00,22.6,21.9,00.0,31.6,24.3,05.9,0000.0,0005.77,0003.84,0003.58
2022-03-08 18:58:00,,0822.5,5.00,0.00,22.6,21.9,00.0,31.6,24.2,05.7,0000.0,0006.66,0003.85,0003.58
2022-03-08 18:59:00,,0822.5,5.00,0.00,22.5,21.9,00.0,31.6,24.2,05.9,0000.0,0006.71,0003.86,0003.58
